Location: Catacaguana
(10.4120°N, 66.7591°W)
Time: 04:55:39
(UTC+00:00)

Ariane 3 Deb - Pass Details

Date: 27 May 2022
Orbit: 315 x 17873 km, 6.8° (Epoch: 26 June)

Event Time Altitude Azimuth Distance (km) Brightness Sun altitude
Rises 00:49:35 0° 265° (W) 5,943 8.3 -28.5°
Reaches altitude 10° 00:55:29 10° 261° (W) 3,262 6.8 -29.8°
Enters shadow 00:59:44 29° 245° (WSW) 1,248 4.3 -30.7°
